Tracking 22454 objects as of 5-Mar-2021
HD Live streaming from Space Station
objects crossing your sky now

FLOCK 4A 13

Track FLOCK 4A 13 now!
10-day predictions
FLOCK 4A 13 is classified as:


NORAD ID: 44102
Int'l Code: 2019-018AA
Perigee: 492.5 km
Apogee: 508.1 km
Inclination: 97.4 °
Period: 94.5 minutes
Semi major axis: 6871 km
RCS: Unknown
Launch date: April 1, 2019
Source: United States (US)
Launch site: SRIHARIKOTA (SRI)
aabbcc
Your satellite tracking list
Your tracking list is empty




NASA's NSSDC Master Catalog

Two Line Element Set (TLE):
1 44102U 19018AA  21063.80382517  .00002730  00000-0  11476-3 0  9990
2 44102  97.3756 127.0678 0011311 357.4344   2.6833 15.24214945107061
Source of the keplerian elements: AFSPC